Вернуться в каталог

NIMBUS 2 DEB

АктивенLEO
NORAD 28609·DEBRIS·🇺🇸 United States

Запущен May 15, 1966 с Vandenberg Space Force Base

Loading…

Ближайшие Пролёты (ближайшие 24 часа)

TLE

УстаревающийSource: Space-Track

Эпоха: Sep 10, 2026, 00:00 UTC

1 28609U 66040Y   26253.00019854  .00000994  00000-0  16137-2 0  9998
2 28609 100.3363 171.8311 0050367 116.4782 303.2472 13.50461478646630

Отслеживайте NIMBUS 2 DEB в реальном времени с AllMySat

Download on the App Store